Baker, MT

1:38 PM MDT on October 18, 2017 (GMT -0600)
Baker Municipal

Weather History for KBHK - January, 2014

Change the Weather History Date:

Monday, January 20, 2014

  Actual Average Record
Temperature  
Mean Temperature 20 °F -  
Max Temperature 32 °F 30 °F 51 °F (2005)
Min Temperature 8 °F 18 °F -6 °F (2013)
Degree Days  
Heating Degree Days 45    
Moisture  
Dew Point 10 °F    
Average Humidity 72    
Maximum Humidity 84    
Minimum Humidity 62    
Precipitation  
Precipitation 0.00 in - - ()
Sea Level Pressure  
Sea Level Pressure 30.34 in    
Wind  
Wind Speed 21 mph (NW)    
Max Wind Speed 31 mph    
Max Gust Speed 45 mph    
Visibility 10 miles    
Events Snow    
Averages and records for this station are not official NWS values.
T = Trace of Precipitation, MM = Missing Value Source: NWS Daily Summary

Daily Weather History Graph

Daily Weather History Graph

Search for Another Location

Airport or City:

Trip Planner

Search our weather history database for the weather conditions in past years. The results will help you decide how hot, cold, wet, or windy it might be!

Date:

Astronomy

Jan. 20, 2014 Rise Set
Actual Time 7:32 AM MST 4:44 PM MST
Civil Twilight 6:59 AM MST 5:17 PM MST
Nautical Twilight 6:22 AM MST 5:54 PM MST
Astronomical Twilight 5:46 AM MST 6:30 PM MST
Moon 9:40 PM MST (1/20) 9:16 AM MST (1/20)
Length of Visible Light 10h 18m
Length of Day
9h 11m
Waning Gibbous, 82% of the Moon is Illuminated
Jan 20
Waning Gibbous
Jan 23
Last Quarter
Jan 30
New
Feb 6
First Quarter
Feb 14
Full

Hourly Weather History & Observations

Time (MST) Temp. Windchill Dew Point Humidity Pressure Visibility Wind Dir Wind Speed Gust Speed Precip Events Conditions
12:51 AM 28.9 °F 16.9 °F 21.0 °F 72% 30.05 in 10.0 mi WNW 17.3 mph - N/A   Clear
1:51 AM 28.9 °F 14.8 °F 19.9 °F 69% 30.06 in 10.0 mi WNW 24.2 mph - N/A   Clear
2:51 AM 30.9 °F 16.4 °F 21.0 °F 67% 30.08 in 10.0 mi WNW 28.8 mph 35.7 mph N/A   Overcast
3:51 AM 30.9 °F 16.9 °F 21.9 °F 69% 30.10 in 10.0 mi WNW 26.5 mph 34.5 mph N/A   Overcast
4:51 AM 32.0 °F 18.4 °F 23.0 °F 69% 30.12 in 10.0 mi WNW 26.5 mph 40.3 mph N/A   Overcast
5:51 AM 32.0 °F 17.4 °F 23.0 °F 69% 30.14 in 10.0 mi NW 31.1 mph 44.9 mph N/A   Overcast
6:51 AM 24.1 °F 6.6 °F 17.1 °F 75% 30.23 in 10.0 mi NNW 31.1 mph 44.9 mph 0.00 in   Overcast
7:51 AM 19.9 °F 1.3 °F 12.0 °F 71% 30.30 in 10.0 mi NW 29.9 mph 43.7 mph N/A   Scattered Clouds
8:03 AM 19.0 °F 0.0 °F 12.0 °F 74% 30.21 in 10.0 mi NNW 29.9 mph 40.3 mph 0.00 in   Mostly Cloudy
8:09 AM 19.0 °F 1.0 °F 12.0 °F 74% 30.22 in 10.0 mi NNW 26.5 mph 40.3 mph 0.00 in   Partly Cloudy
8:42 AM 17.1 °F -1.0 °F 10.0 °F 74% 30.26 in 10.0 mi NW 24.2 mph 34.5 mph 0.00 in   Mostly Cloudy
8:51 AM 17.1 °F -1.0 °F 10.0 °F 74% 30.38 in 6.0 mi NNW 24.2 mph 29.9 mph 0.00 in Snow Light Snow
9:51 AM 14.0 °F -5.1 °F 5.0 °F 67% 30.46 in 10.0 mi NW 24.2 mph 36.8 mph 0.00 in   Scattered Clouds
9:57 AM 15.1 °F -2.0 °F 5.0 °F 64% 30.35 in 10.0 mi NW 19.6 mph 31.1 mph N/A   Mostly Cloudy
10:09 AM 14.0 °F -5.5 °F 3.0 °F 62% 30.36 in 10.0 mi NW 25.3 mph 33.4 mph N/A   Scattered Clouds
10:51 AM 14.0 °F -4.7 °F 3.9 °F 64% 30.49 in 10.0 mi NW 23.0 mph - N/A   Partly Cloudy
11:51 AM 12.9 °F -5.3 °F 3.0 °F 65% 30.50 in 10.0 mi NW 20.7 mph - N/A   Clear
12:51 PM 14.0 °F -2.0 °F 3.9 °F 64% 30.49 in 10.0 mi WNW 16.1 mph - N/A   Clear
1:51 PM 15.1 °F -2.0 °F 5.0 °F 64% 30.46 in 10.0 mi NW 19.6 mph - N/A   Clear
2:51 PM 16.0 °F -0.4 °F 6.1 °F 65% 30.46 in 10.0 mi NNW 18.4 mph - N/A   Scattered Clouds
3:51 PM 15.1 °F 2.5 °F 5.0 °F 64% 30.50 in 10.0 mi WNW 10.4 mph - N/A   Clear
4:51 PM 12.0 °F 2.7 °F 3.9 °F 70% 30.50 in 10.0 mi WNW 5.8 mph - N/A   Clear
5:51 PM 10.0 °F - 3.9 °F 76% 30.48 in 10.0 mi Calm Calm - N/A   Clear
6:51 PM 9.0 °F -2.2 °F 3.9 °F 80% 30.49 in 10.0 mi South 6.9 mph - N/A   Clear
7:51 PM 8.1 °F -0.5 °F 3.9 °F 83% 30.48 in 10.0 mi SSE 4.6 mph - N/A   Clear
8:51 PM 10.0 °F 0.4 °F 5.0 °F 80% 30.46 in 10.0 mi ESE 5.8 mph - N/A   Clear
9:51 PM 12.0 °F 2.7 °F 8.1 °F 84% 30.43 in 10.0 mi SE 5.8 mph - N/A   Clear
10:51 PM 12.0 °F 2.7 °F 8.1 °F 84% 30.40 in 10.0 mi SSE 5.8 mph - N/A   Clear
11:51 PM 12.0 °F 2.7 °F 8.1 °F 84% 30.35 in 10.0 mi SSE 5.8 mph - N/A   Clear